Location: 22
(39.7117°N, 89.5929°W)
Time: 08:44:24
(UTC-05:00)

S-56A Canister/Altair - Pass Details

Date: 08 February 2023
Orbit: 638 x 2493 km, 38.9° (Epoch: 25 March)

Event Time Altitude Azimuth Distance (km) Brightness Sun altitude
Rises 08:53:12 0° 233° (SW) 3,166 10.6 18.3°
Reaches altitude 10° 08:55:52 10° 225° (SW) 2,120 9.8 18.7°
Maximum altitude 09:00:10 38° 157° (SSE) 979 9.4 19.4°
Drops below altitude 10° 09:04:21 10° 89° (E) 2,057 10.6 20.0°
Sets 09:06:53 0° 81° (E) 3,058 11.2 20.3°
